Location: Unspecified
(0.0000°N, 0.0000°E)
Time: 18:54:12
(UTC+00:00)

Vanguard 3 - Pass Details

Date: 25 September 2023
Orbit: 507 x 3241 km, 33.3° (Epoch: 29 November)

Event Time Altitude Azimuth Distance (km) Brightness Sun altitude
Rises 10:14:10 0° 221° (SW) 5,903 11.4 65.6°
Reaches altitude 10° 10:20:22 10° 201° (SSW) 5,397 11.4 67.1°
Maximum altitude 10:30:00 17° 166° (SSE) 5,352 11.6 69.5°
Drops below altitude 10° 10:40:52 10° 132° (SE) 6,176 12.0 72.3°
Sets 10:48:55 0° 114° (ESE) 7,122 12.2 74.3°
